User: anonymous   Login
Location: Kernascl�den
(48.0062°N, 3.3198°W)
Time: 18:44:39
(UTC+00:00)
Language:

Feng Yun 1-1 Rocket - Orbit

View from above orbital plane
View from above orbital plane
View from above satellite
View from above satellite

Ground track
Ground track

The orbit data is extracted from the following two-line orbital elements,

1 19468U 88080B   21105.08545670  .00000114  00000-0  99273-4 0  9996
2 19468  99.2019 128.1156 0072257 127.5867 299.4690 14.03543722669385
Epoch (UTC): 15 April 2021 02:03:03
Eccentricity: 0.0072257
inclination: 99.2019°
perigee height: 829 km
apogee height: 934 km
right ascension of ascending node: 128.1156°
argument of perigee: 127.5867°
revolutions per day: 14.03543722
mean anomaly at epoch: 299.4690°
orbit number at epoch: 66938

The dashed part of the orbit path shows where the satellite is in the earth's shadow,  

DLR